Johnstown, PA

5:14 PM EDT on April 20, 2018 (GMT -0400)
Johnstown-Cambria County

Weather History for KJST - June, 2012

Change the Weather History Date:

Tuesday, June 26, 2012

  Actual Average Record
Temperature  
Mean Temperature 58 °F 68 °F  
Max Temperature 70 °F 77 °F 97 °F (1952)
Min Temperature 46 °F 58 °F 40 °F (1984)
Degree Days  
Heating Degree Days 7 1  
Month to date heating degree days 75  
Since 1 June heating degree days 75  
Since 1 July heating degree days 6684  
Cooling Degree Days 0 4  
Month to date cooling degree days 59  
Year to date cooling degree days 83  
Since 1 June cooling degree days 59  
Growing Degree Days 8 (Base 50)    
Moisture  
Dew Point 44 °F    
Average Humidity 60    
Maximum Humidity 83    
Minimum Humidity 38    
Precipitation  
Precipitation 0.00 in 0.13 in 1.54 in (1931)
Month to date precipitation 3.59  
Year to date precipitation 20.23  
Sea Level Pressure  
Sea Level Pressure 29.93 in    
Wind  
Wind Speed 11 mph (NW)    
Max Wind Speed 17 mph    
Max Gust Speed 30 mph    
Visibility 10 miles    
Events      
T = Trace of Precipitation, MM = Missing Value Source: NWS Daily Summary

Daily Weather History Graph

Daily Weather History Graph

Search for Another Location

Airport or City:

Astronomy

Jun. 26, 2012 Rise Set
Actual Time 5:47 AM EDT 8:49 PM EDT
Civil Twilight 5:14 AM EDT 9:22 PM EDT
Nautical Twilight 4:32 AM EDT 10:04 PM EDT
Astronomical Twilight 3:42 AM EDT 10:53 PM EDT
Moon 1:02 PM EDT (6/26) 12:15 AM EDT (6/26)
Length of Visible Light 16h 08m
Length of Day
15h 02m
Waxing Crescent, 45% of the Moon is Illuminated
Jun 26
Waxing Crescent
Jun 26
First Quarter
Jul 3
Full
Jul 10
Last Quarter
Jul 19
New

Hourly Weather History & Observations

Time (EDT) Temp. Dew Point Humidity Pressure Visibility Wind Dir Wind Speed Gust Speed Precip Events Conditions
12:54 AM 52.0 °F 42.1 °F 69% 29.93 in 10.0 mi NNW 9.2 mph - N/A   Clear
1:54 AM 50.0 °F 42.1 °F 74% 29.93 in 10.0 mi NW 8.1 mph - N/A   Clear
2:54 AM 48.9 °F 42.1 °F 77% 29.92 in 10.0 mi WNW 6.9 mph - N/A   Clear
3:54 AM 48.0 °F 42.1 °F 80% 29.91 in 10.0 mi WNW 5.8 mph - N/A   Clear
4:54 AM 48.0 °F 42.1 °F 80% 29.91 in 10.0 mi NW 6.9 mph - N/A   Clear
5:54 AM 46.9 °F 42.1 °F 83% 29.93 in 10.0 mi WNW 6.9 mph - N/A   Clear
6:54 AM 48.9 °F 43.0 °F 80% 29.95 in 10.0 mi WNW 9.2 mph - N/A   Clear
7:54 AM 52.0 °F 46.0 °F 80% 29.96 in 10.0 mi NW 11.5 mph - N/A   Clear
8:54 AM 54.0 °F 46.0 °F 75% 29.98 in 10.0 mi NW 10.4 mph - N/A   Partly Cloudy
9:54 AM 59.0 °F 46.0 °F 62% 29.97 in 10.0 mi NW 13.8 mph - N/A   Partly Cloudy
10:54 AM 61.0 °F 44.1 °F 54% 29.96 in 10.0 mi NNW 17.3 mph 24.2 mph N/A   Partly Cloudy
11:54 AM 61.0 °F 43.0 °F 52% 29.96 in 10.0 mi NW 16.1 mph 29.9 mph N/A   Mostly Cloudy
12:54 PM 64.9 °F 45.0 °F 48% 29.94 in 10.0 mi NW 15.0 mph 20.7 mph N/A   Mostly Cloudy
1:54 PM 64.9 °F 44.1 °F 47% 29.93 in 10.0 mi NW 17.3 mph 24.2 mph N/A   Mostly Cloudy
2:54 PM 69.1 °F 44.1 °F 40% 29.91 in 10.0 mi NW 17.3 mph 29.9 mph N/A   Scattered Clouds
3:54 PM 70.0 °F 43.0 °F 38% 29.90 in 10.0 mi NNW 17.3 mph 27.6 mph N/A   Mostly Cloudy
4:54 PM 68.0 °F 42.1 °F 39% 29.90 in 10.0 mi NNW 17.3 mph 23.0 mph N/A   Scattered Clouds
5:54 PM 66.9 °F 42.1 °F 40% 29.91 in 10.0 mi NNW 15.0 mph 25.3 mph N/A   Scattered Clouds
6:54 PM 66.9 °F 42.1 °F 40% 29.91 in 10.0 mi NNW 15.0 mph 21.9 mph N/A   Partly Cloudy
7:54 PM 64.9 °F 42.1 °F 43% 29.92 in 10.0 mi NNW 10.4 mph - N/A   Clear
8:54 PM 62.1 °F 44.1 °F 52% 29.92 in 10.0 mi NW 10.4 mph - N/A   Clear
9:54 PM 60.1 °F 45.0 °F 57% 29.93 in 10.0 mi WNW 6.9 mph - N/A   Clear
10:54 PM 59.0 °F 46.0 °F 62% 29.93 in 10.0 mi WNW 9.2 mph - N/A   Clear
11:54 PM 57.9 °F 46.0 °F 65% 29.94 in 10.0 mi West 8.1 mph - N/A   Clear